Showing default

ASTROCAST-0101, 47430

Orbit data source: Space-Track

ASTROCAST-0101, 47430 is a payload satellite owned by Astrocast (CH) in SSO that was launched on Sun, 24 Jan 2021 UTC via an FALCON 9 launch vehicle from the Air Force Eastern Test Range (AFETR). Payload-class satellites include a variety of spacecraft equipped with specific instruments for various scientific and technological missions. These include communications satellites like Starlink; space stations such as the ISS; scientific satellites like the Hubble; Earth observation satellites from companies like Planet Labs, Umbra, and HawkEye 360; GPS; miniature CubeSats for education and research; and military/defense satellites.

Not visible in the next 10 days
Identifier
47430, 2021-006T
Orbit
SSO
Country
Flag of CHCH / SWTZ
Related business
Manufacturer
Astrocast
Mission
Operational Commercial Communications
Bus & Motor
CUBESAT 3U, Unknown motor
Mass
5 kg wet, 5 kg dry
Launch date (UTC)
2021-01-24 (5 years ago)
Launch vehicle
FALCON 9
Launch site
Air Force Eastern Test Range (AFETR)
Object type
Payload
Rocket body
Debris
Shape & HBR
Box, Unknown HBR
Radar Cross Section
0.035 m², Medium (>0.1 m² and < 1m²)

Expand to show TLE details & history
Last TLE update: 6 days ago

TLE from 6 days ago
0 ASTROCAST-0101
1 47430U 21006T   26155.27364368  .00227586  00000-0  11000-2 0  9999
2 47430  97.2259 223.4785 0006935 239.9977 120.0604 15.81913971297910
Epoch: 2026-06-04T06:34Z
TLE epoch observation values (Epoch: 2026-06-04T06:34:02.813Z)
Latitude
-0.00008°
Longitude
-127.75348°
Altitude
330.539 km
Speed
7.709 km/s
True Right ascension
14h 53m 54s
True Declination
0° 00' 00"
Sunlit
Object was in full shadow at epoch
Visualization orbit readout
Latitude
Unknown
Longitude
Unknown
Altitude
Unknown
Speed
Unknown
Apparent Right ascension
Unknown
Apparent Declination
Unknown
Sunlit
N/A
Visualization observer readout
Local Sidereal Time
10:12:59
Azimuth
Unknown
Elevation
Unknown
Doppler factor
Unknown
Orbital elements
Apogee altitude
326.551 km
Perigee altitude
317.258 km
Semi-major axis
6,700.041 km
Eccentricity
0.00069
Inclination
97.2259°
RAAN
223.4785°
Arg. of periapsis
239.9977°
True anomaly
120.12915°
Mean anomaly
120.0604°
Eccentric anomaly
120.09478°
Mean motion
3.95755 °/min
Orbital period
90.97 mins
BSTAR
0.0011
Loading maneuver chart data...
Computing Atmospheric mass density...

Documentation

Showing up to 5 results
|